TimeCDT,TemperatureF,Dew PointF,Humidity,Sea Level PressureIn,VisibilityMPH,Wind Direction,Wind SpeedMPH,Gust SpeedMPH,PrecipitationIn,Events,Conditions,WindDirDegrees,DateUTC
12:58 AM,86.5,70.3,58,29.84,10.0,SE,12.7,-,N/A,,Clear,130,2013-07-29 05:58:00
1:58 AM,85.8,71.8,63,29.84,10.0,SE,16.1,-,N/A,,Clear,130,2013-07-29 06:58:00
2:58 AM,84.9,72.1,65,29.84,10.0,SE,15.0,-,N/A,,Mostly Cloudy,130,2013-07-29 07:58:00
3:58 AM,84.0,72.5,68,29.85,10.0,SE,11.5,-,N/A,,Mostly Cloudy,140,2013-07-29 08:58:00
4:58 AM,82.6,72.3,71,29.86,10.0,ESE,10.4,-,N/A,,Mostly Cloudy,120,2013-07-29 09:58:00
5:58 AM,81.5,72.7,74,29.87,10.0,SE,12.7,-,N/A,,Overcast,130,2013-07-29 10:58:00
6:03 AM,80.6,73.4,79,29.92,10.0,SE,12.7,-,N/A,,Overcast,130,2013-07-29 11:03:00
6:58 AM,80.8,72.7,76,29.89,10.0,SE,13.8,-,N/A,,Overcast,130,2013-07-29 11:58:00
7:58 AM,80.4,72.3,76,29.91,10.0,SE,17.3,-,N/A,,Overcast,130,2013-07-29 12:58:00
8:58 AM,81.1,72.3,74,29.93,10.0,SE,17.3,-,N/A,,Mostly Cloudy,130,2013-07-29 13:58:00
9:08 AM,80.6,71.6,74,29.97,10.0,SE,18.4,-,N/A,,Mostly Cloudy,140,2013-07-29 14:08:00
9:18 AM,80.6,71.6,74,29.98,10.0,SE,17.3,-,N/A,,Mostly Cloudy,130,2013-07-29 14:18:00
9:58 AM,82.2,72.1,71,29.95,10.0,SSE,15.0,-,N/A,,Overcast,150,2013-07-29 14:58:00
10:58 AM,86.0,71.6,62,29.95,10.0,SE,16.1,-,N/A,,Mostly Cloudy,140,2013-07-29 15:58:00
11:33 AM,86.0,71.6,62,29.99,10.0,SSE,17.3,-,N/A,,Scattered Clouds,150,2013-07-29 16:33:00
11:58 AM,88.7,70.5,55,29.94,10.0,SSE,15.0,-,N/A,,Clear,160,2013-07-29 16:58:00
12:58 PM,91.0,69.1,48,29.92,10.0,SSE,15.0,-,N/A,,Partly Cloudy,150,2013-07-29 17:58:00
1:02 PM,91.4,68.0,46,29.97,10.0,SE,16.1,-,N/A,,Partly Cloudy,130,2013-07-29 18:02:00
1:34 PM,93.2,68.0,44,29.96,10.0,SE,15.0,20.7,N/A,,Scattered Clouds,140,2013-07-29 18:34:00
1:58 PM,93.9,65.3,39,29.91,10.0,SSE,16.1,-,N/A,,Mostly Cloudy,160,2013-07-29 18:58:00
2:46 PM,96.8,66.2,37,29.93,10.0,South,18.4,24.2,N/A,,Partly Cloudy,170,2013-07-29 19:46:00
2:58 PM,96.4,65.1,36,29.88,10.0,SE,16.1,24.2,N/A,,Partly Cloudy,140,2013-07-29 19:58:00
3:16 PM,96.8,64.4,34,29.93,10.0,SE,15.0,-,N/A,,Partly Cloudy,130,2013-07-29 20:16:00
3:33 PM,96.8,64.4,34,29.92,10.0,South,17.3,23.0,N/A,,Clear,170,2013-07-29 20:33:00
3:58 PM,97.7,63.0,32,29.86,10.0,SSE,20.7,26.5,N/A,,Clear,150,2013-07-29 20:58:00
4:07 PM,98.6,62.6,30,29.90,10.0,South,15.0,21.9,N/A,,Clear,180,2013-07-29 21:07:00
4:12 PM,98.6,62.6,30,29.91,10.0,SE,18.4,29.9,N/A,,Clear,140,2013-07-29 21:12:00
4:13 PM,98.6,62.6,30,29.91,10.0,SE,17.3,29.9,N/A,,Clear,140,2013-07-29 21:13:00
4:14 PM,98.6,62.6,30,29.91,10.0,SE,16.1,29.9,N/A,,Clear,130,2013-07-29 21:14:00
4:26 PM,98.6,60.8,29,29.90,10.0,South,18.4,21.9,N/A,,Clear,180,2013-07-29 21:26:00
4:27 PM,98.6,60.8,29,29.90,10.0,South,17.3,21.9,N/A,,Clear,180,2013-07-29 21:27:00
4:34 PM,98.6,60.8,29,29.90,10.0,SE,17.3,-,N/A,,Clear,130,2013-07-29 21:34:00
4:35 PM,98.6,60.8,29,29.90,10.0,SE,16.1,-,N/A,,Clear,130,2013-07-29 21:35:00
4:58 PM,99.3,60.6,28,29.85,10.0,SE,19.6,23.0,N/A,,Clear,140,2013-07-29 21:58:00
5:45 PM,100.4,59.0,25,29.89,10.0,South,16.1,24.2,N/A,,Clear,180,2013-07-29 22:45:00
5:58 PM,99.5,57.9,25,29.84,10.0,SSE,15.0,26.5,N/A,,Clear,160,2013-07-29 22:58:00
6:58 PM,99.1,59.2,27,29.84,10.0,South,15.0,23.0,N/A,,Clear,180,2013-07-29 23:58:00
7:58 PM,97.2,59.5,29,29.87,10.0,South,12.7,-,N/A,,Clear,170,2013-07-30 00:58:00
8:58 PM,94.1,59.9,32,29.90,10.0,South,5.8,-,N/A,,Clear,180,2013-07-30 01:58:00
9:58 PM,90.1,60.3,37,29.90,10.0,SE,4.6,-,N/A,,Clear,140,2013-07-30 02:58:00
10:58 PM,87.4,60.8,41,29.92,10.0,ESE,4.6,-,N/A,,Clear,110,2013-07-30 03:58:00
11:58 PM,88.0,65.7,47,29.91,10.0,SE,13.8,-,N/A,,Clear,130,2013-07-30 04:58:00